[[{"header":{"parameterUnit":"m.s-1","parameterCategory":1,"la1":30.2991,"la2":30.254,"lo1":-89.0895,"lo2":-89.0444,"dy":0.0017,"dx":0.0017,"nx":28,"ny":28,"refTime":"2024-12-01T03:00:00:Z","depth":0,"parameterNumber":2,"parameterNumberName":"U-component_of_WINDS"},"data":[0,0,0,0,0,0,0,0,0,0,0,0,0,0,0,0,0,0,0,0,0,0,0,0,0,0,0,0,0,0,0,0,0,0,0,0,0,0,0,0,0,0,0,0,0,0,0,0,0,0,0,0,0,0,0,0,0,0,-1.9517,-1.9518,0,-1.9631,-1.9633,-1.9634,-1.9628,-1.9627,-1.9625,-1.9623,-1.974,-1.9745,-1.9749,0,0,0,0,0,0,0,0,0,0,0,0,0,-1.9293,-1.9297,-1.9517,-1.9518,-1.952,-1.9631,-1.9633,-1.9634,-1.9629,-1.9627,-1.9625,-1.9623,-1.9739,-1.9744,-1.975,0,0,0,0,0,0,0,0,0,0,0,0,0,-1.9397,-1.9298,-1.9517,-1.953,-1.9533,-1.9631,-1.9633,-1.9635,-1.9629,-1.9626,-1.9624,-1.9622,-1.9737,-1.9744,-1.9751,-1.9842,0,0,-1.9772,-1.9775,0,0,0,0,0,0,0,0,-1.9391,-1.9405,-1.9527,-1.953,-1.9532,-1.9613,-1.9596,-1.9704,-1.963,-1.9592,-1.9623,-1.9621,-1.97,-1.971,-1.9737,-1.9848,-1.9853,-1.9772,-1.9777,-1.978,-1.9782,0,0,0,0,0,0,0,-1.9384,-1.94,-1.9562,-1.9529,-1.9532,-1.953,-1.9543,-1.9617,-1.9658,-1.9595,-1.9595,-1.9609,-1.9701,-1.973,-1.9739,-1.9855,-1.9772,-1.9778,-1.9783,-1.9785,-2.0045,-2.0048,0,0,0,0,0,0,-1.9374,-1.9394,-1.9558,-1.9566,-1.9454,-1.9536,-1.955,-1.959,-1.9658,-1.9666,-1.9611,-1.9608,-1.9719,-1.9731,-1.9743,-1.9854,-1.978,-1.9786,-1.979,-2.0042,-2.0046,-2.0049,0,0,0,0,0,0,-1.9369,-1.9388,-1.9554,-1.948,-1.9501,-1.9543,-1.9587,-1.9593,-1.9622,-1.9669,-1.9677,-1.9633,-1.9718,-1.9734,-1.9817,-1.9858,-1.9789,-1.9796,-2.0039,-2.0043,-2.0047,-2.0076,0,0,0,0,0,0,-1.9362,-1.9387,-1.9422,-1.9481,-1.9505,-1.9626,-1.959,-1.9597,-1.9634,-1.9632,-1.9692,-1.9699,-1.9717,-1.9807,-1.9824,-1.9866,-1.9801,-2.0036,-2.0041,-2.0046,-2.0072,-2.0081,-2.0089,0,0,0,0,0,-1.9354,-1.9426,-1.9424,-1.9444,-1.955,-1.9629,-1.9642,-1.9661,-1.9637,-1.9673,-1.9703,-1.9698,-1.9851,-1.9816,-1.9835,-1.988,-2.0033,-2.004,-2.0046,-2.0068,-2.0079,-2.0088,0,0,0,0,0,0,-1.9372,-1.9434,-1.9432,-1.9525,-1.9572,-1.9628,-1.9673,-1.9673,-1.9727,-1.9722,-1.9743,-1.9757,-1.984,-1.9869,-1.9828,-1.9971,-1.9939,-1.9949,-1.9949,-1.996,-1.9968,-1.9959,-1.9807,0,0,0,0,0,-1.9386,-1.9445,-1.9496,-1.9573,-1.9597,-1.9631,-1.9666,-1.9676,-1.9725,-1.9745,-1.9781,-1.9829,-1.9887,-1.9926,-1.9983,-2.0076,-2.0088,-2.0116,-2.0125,-2.0131,-2.014,-2.0189,-2.0202,-2.0069,-2.0069,-2.0069,0,0,-1.9417,-1.9458,-1.9494,-1.9578,-1.9615,-1.9675,-1.9648,-1.9712,-1.9757,-1.9755,-1.9835,-1.9864,-1.9918,-2.0007,-2.0048,-2.0033,-2.0179,-2.0139,-2.0144,-2.0149,-2.0197,-2.021,-2.0221,-2.0073,-2.0072,-2.0072,0,0,-1.9503,-1.9541,-1.9608,-1.9646,-1.9702,-1.9725,-1.9741,-1.9797,-1.9816,-1.9897,-1.9896,-1.9949,-2.0051,-2.0089,-2.0121,-2.0221,-2.0217,-2.0239,-2.0282,-2.0331,-2.0341,-2.035,-2.0384,-2.0396,-2.0248,-2.0248,-2.0248,0,-1.9534,-1.9624,-1.9643,-1.9708,-1.9744,-1.9745,-1.9813,-1.9849,-1.9921,-1.9945,-1.9928,-2.0054,-2.0091,-2.0187,-2.0212,-2.0239,-2.0257,-2.0232,-2.0338,-2.0348,-2.0357,-2.0389,-2.0402,-2.025,-2.025,-2.0249,-2.0249,0,-1.9658,-1.9721,-1.9768,-1.9837,-1.9879,-1.9945,-1.9974,-2.0014,-2.0021,-2.0045,-2.0127,-2.0171,-2.0236,-2.026,-2.0268,-2.0358,-2.0346,-2.0334,-2.0301,-2.0371,-2.0402,-2.0415,-2.0253,-2.0252,-2.0251,-2.0251,0,0,-1.9758,-1.9836,-1.9853,-1.9884,-1.9946,-1.9994,-2.006,-2.0123,-2.0156,-2.0206,-2.0261,-2.0346,-2.0334,-2.0371,-2.0383,-2.0426,-2.05,-2.0408,-2.0409,-2.0421,-2.06,-2.0608,-2.0622,-2.0498,-2.0501,-2.0503,-2.0594,0,-1.9849,-1.9965,-1.9984,-2.0086,-2.0143,-2.0144,-2.0202,-2.0245,-2.027,-2.0321,-2.0348,-2.0407,-2.0388,-2.041,-2.0452,-2.0482,-2.0535,-2.0476,-2.0548,-2.055,-2.0532,-2.0638,-2.0647,-2.0732,-2.0607,-2.0609,-2.061,0,-1.997,-2.0022,-2.013,-2.0183,-2.0208,-2.0259,-2.0317,-2.0367,-2.0417,-2.0431,-2.0472,-2.0479,-2.0546,-2.0512,-2.0604,-2.0563,-2.0594,-2.0613,-2.0617,-2.0623,-2.0583,-2.0645,-2.0759,-2.0771,-2.063,-2.0628,-2.0627,0,-2.003,-2.0127,-2.0203,-2.023,-2.0294,-2.033,-2.0358,-2.0405,-2.0442,-2.0493,-2.0517,-2.0576,-2.0608,-2.0653,-2.0675,-2.0648,-2.0765,-2.0733,-2.0778,-2.0777,-2.0801,-2.0799,-2.092,-2.0824,-2.0824,-2.0824,-2.0823,0,-2.0128,-2.0193,-2.0231,-2.0277,-2.035,-2.0371,-2.0443,-2.047,-2.0512,-2.0563,-2.0569,-2.0617,-2.0644,-2.0696,-2.0714,-2.0787,-2.0802,-2.0814,-2.0818,-2.0813,-2.0811,-2.0832,-2.0826,-2.0827,-2.0826,-2.0826,-2.0825,0,-2.0206,-2.0234,-2.0317,-2.0371,-2.0386,-2.0437,-2.0483,-2.0528,-2.0552,-2.0617,-2.0634,-2.0671,-2.0732,-2.0759,-2.0835,-2.0847,-2.0929,-2.093,-2.0912,-2.0913,-2.0955,-2.095,-2.1092,-2.1111,-2.1005,-2.1006,-2.1007,0,-2.0266,-2.0316,-2.0375,-2.041,-2.0439,-2.0496,-2.0533,-2.0555,-2.0594,-2.0653,-2.0691,-2.0752,-2.0803,-2.0901,-2.0934,-2.0992,-2.0992,-2.1038,-2.1001,-2.0994,-2.0991,-2.0987,-2.0991,-2.1044,-2.1046,-2.1046,-2.1047,0,-2.0369,-2.038,-2.0433,-2.0491,-2.0535,-2.0582,-2.0627,-2.0656,-2.0685,-2.0728,-2.079,-2.0829,-2.0906,-2.0967,-2.1027,-2.1055,-2.1056,-2.1059,-2.1072,-2.1066,-2.1053,-2.1059,-2.0929,-2.1055,-2.1054,-2.1054,-2.1053,-2.1053,-2.0439,-2.0483,-2.0531,-2.0589,-2.0626,-2.0668,-2.0713,-2.0742,-2.0794,-2.0859,-2.0869,-2.0935,-2.0983,-2.1063,-2.1094,-2.1146,-2.1134,-2.1154,-2.1158,-2.1162,-2.1164,-2.1046,-2.1157,-2.1157,-2.1157,-2.1156,-2.1156,0,-2.054,-2.0571,-2.0625,-2.0688,-2.0734,-2.0731,-2.0781,-2.0819,-2.0878,-2.0922,-2.0971,-2.1042,-2.1101,-2.1139,-2.1198,-2.1232,-2.1233,-2.1246,-2.1243,-2.1249,-2.1172,-2.1153,-2.1244,-2.1244,-2.1244,-2.1244,-2.1244,-2.1244,-2.0598,-2.0672,-2.0688,-2.078,-2.081,-2.0875,-2.0904,-2.0942,-2.0977,-2.1056,-2.1105,-2.113,-2.1171,-2.1233,-2.1286,-2.1296,-2.1316,-2.1329,-2.1338,-2.1264,-2.1255,-2.1246,-2.1229,-2.1334,-2.1334,-2.1411,-2.1412,-2.1413]},{"header":{"parameterUnit":"m.s-1","parameterCategory":1,"la1":30.2991,"la2":30.254,"lo1":-89.0895,"lo2":-89.0444,"dy":0.0017,"dx":0.0017,"nx":28,"ny":28,"refTime":"2024-12-01T03:00:00:Z","depth":0,"parameterNumber":3,"parameterNumberName":"V-component_of_WINDS"},"data":[0,0,0,0,0,0,0,0,0,0,0,0,0,0,0,0,0,0,0,0,0,0,0,0,0,0,0,0,0,0,0,0,0,0,0,0,0,0,0,0,0,0,0,0,0,0,0,0,0,0,0,0,0,0,0,0,0,0,-1.5239,-1.5238,0,-1.5168,-1.5167,-1.5166,-1.5174,-1.5175,-1.5176,-1.5177,-1.5099,-1.5096,-1.5093,0,0,0,0,0,0,0,0,0,0,0,0,0,-1.5376,-1.5373,-1.5239,-1.5238,-1.5237,-1.5168,-1.5167,-1.5166,-1.5174,-1.5175,-1.5177,-1.5178,-1.51,-1.5096,-1.5093,0,0,0,0,0,0,0,0,0,0,0,0,0,-1.5312,-1.5372,-1.5239,-1.5233,-1.5232,-1.5168,-1.5167,-1.5166,-1.5174,-1.5175,-1.5177,-1.5179,-1.5101,-1.5097,-1.5092,-1.5029,0,0,-1.5078,-1.5076,0,0,0,0,0,0,0,0,-1.5315,-1.5307,-1.5235,-1.5233,-1.5232,-1.5182,-1.5187,-1.512,-1.5173,-1.5196,-1.5178,-1.518,-1.5125,-1.5118,-1.5101,-1.5025,-1.5022,-1.5077,-1.5074,-1.5072,-1.5071,0,0,0,0,0,0,0,-1.532,-1.531,-1.5211,-1.5234,-1.5232,-1.5232,-1.5225,-1.5174,-1.5151,-1.5194,-1.5194,-1.5186,-1.5124,-1.5106,-1.5099,-1.502,-1.5077,-1.5073,-1.507,-1.5068,-1.4885,-1.4883,0,0,0,0,0,0,-1.5326,-1.5313,-1.5213,-1.5209,-1.5279,-1.5228,-1.522,-1.5196,-1.5152,-1.5147,-1.5185,-1.5187,-1.5113,-1.5105,-1.5097,-1.5017,-1.5072,-1.5068,-1.5065,-1.4887,-1.4885,-1.4883,0,0,0,0,0,0,-1.5329,-1.5317,-1.5216,-1.5261,-1.5248,-1.5224,-1.5197,-1.5194,-1.5175,-1.5145,-1.514,-1.517,-1.5114,-1.5103,-1.5045,-1.5014,-1.5066,-1.5062,-1.489,-1.4886,-1.4884,-1.4858,0,0,0,0,0,0,-1.5333,-1.5319,-1.5296,-1.5261,-1.5246,-1.5167,-1.5195,-1.5191,-1.5167,-1.5169,-1.513,-1.5125,-1.5114,-1.5052,-1.504,-1.5009,-1.5058,-1.4892,-1.4888,-1.4885,-1.4861,-1.4854,-1.4848,0,0,0,0,0,-1.5338,-1.5291,-1.5294,-1.5282,-1.5217,-1.5166,-1.5157,-1.5147,-1.5165,-1.514,-1.5121,-1.5126,-1.502,-1.5046,-1.5033,-1.4999,-1.4894,-1.4889,-1.4885,-1.4864,-1.4856,-1.4849,0,0,0,0,0,0,-1.5321,-1.5286,-1.529,-1.523,-1.5201,-1.5167,-1.5136,-1.5139,-1.5103,-1.5106,-1.5094,-1.5085,-1.5026,-1.5007,-1.5037,-1.4934,-1.4959,-1.4952,-1.4948,-1.494,-1.4933,-1.4938,-1.5054,0,0,0,0,0,-1.5311,-1.5274,-1.5245,-1.5195,-1.518,-1.5161,-1.5138,-1.5133,-1.5102,-1.5089,-1.5065,-1.5033,-1.4992,-1.4965,-1.4926,-1.486,-1.4849,-1.483,-1.4823,-1.4818,-1.4811,-1.4771,-1.4761,-1.4868,-1.4868,-1.4868,0,0,-1.5288,-1.5264,-1.5242,-1.519,-1.5167,-1.5127,-1.515,-1.5107,-1.5076,-1.5082,-1.5025,-1.5007,-1.497,-1.4906,-1.4877,-1.4889,-1.4779,-1.4812,-1.4808,-1.4804,-1.4765,-1.4755,-1.4746,-1.4864,-1.4865,-1.4866,0,0,-1.5226,-1.5206,-1.516,-1.5137,-1.5102,-1.5089,-1.5079,-1.5044,-1.5032,-1.4976,-1.4978,-1.4941,-1.4872,-1.4844,-1.4821,-1.4748,-1.475,-1.4736,-1.47,-1.4662,-1.4653,-1.4646,-1.4616,-1.4606,-1.4729,-1.4729,-1.4729,0,-1.5201,-1.5143,-1.5136,-1.5092,-1.5068,-1.5074,-1.5026,-1.5003,-1.4956,-1.4939,-1.4953,-1.4865,-1.4841,-1.4769,-1.4751,-1.4734,-1.4718,-1.4739,-1.4656,-1.4648,-1.4641,-1.4612,-1.4602,-1.4727,-1.4727,-1.4728,-1.4728,0,-1.5113,-1.5072,-1.504,-1.4996,-1.4968,-1.4923,-1.4907,-1.488,-1.4877,-1.4862,-1.4803,-1.4774,-1.4728,-1.4711,-1.4708,-1.4639,-1.4647,-1.4659,-1.4683,-1.4629,-1.4602,-1.4591,-1.4725,-1.4725,-1.4726,-1.4726,0,0,-1.5037,-1.499,-1.4978,-1.4957,-1.4918,-1.4885,-1.4839,-1.4796,-1.4771,-1.4739,-1.4697,-1.4638,-1.4649,-1.4623,-1.4616,-1.4583,-1.4522,-1.4598,-1.4597,-1.4582,-1.444,-1.4429,-1.4417,-1.4525,-1.4523,-1.4521,-1.4442,0,-1.4968,-1.4888,-1.488,-1.4807,-1.4768,-1.4772,-1.4731,-1.4701,-1.4686,-1.4649,-1.4631,-1.4588,-1.4607,-1.459,-1.4558,-1.4537,-1.4493,-1.4543,-1.4483,-1.4481,-1.4489,-1.4404,-1.4393,-1.4319,-1.4432,-1.443,-1.4429,0,-1.4878,-1.4843,-1.4767,-1.4732,-1.4715,-1.4679,-1.4637,-1.4602,-1.4568,-1.4559,-1.453,-1.4528,-1.4477,-1.4506,-1.4434,-1.4468,-1.4443,-1.4429,-1.4426,-1.4418,-1.445,-1.439,-1.4296,-1.4284,-1.4413,-1.4414,-1.4416,0,-1.4826,-1.4761,-1.4706,-1.4688,-1.4647,-1.4621,-1.4602,-1.457,-1.4544,-1.4507,-1.4489,-1.4447,-1.4422,-1.4388,-1.4373,-1.4396,-1.4301,-1.433,-1.429,-1.429,-1.4267,-1.4268,-1.4165,-1.4256,-1.4257,-1.4257,-1.4257,0,-1.4748,-1.47,-1.4681,-1.4647,-1.4593,-1.4584,-1.4529,-1.4512,-1.4483,-1.4443,-1.4445,-1.4407,-1.4392,-1.4351,-1.4339,-1.428,-1.4269,-1.4258,-1.4255,-1.4256,-1.4257,-1.4238,-1.4241,-1.4254,-1.4255,-1.4255,-1.4256,0,-1.468,-1.4666,-1.4606,-1.4572,-1.4562,-1.4523,-1.4493,-1.4459,-1.4445,-1.4394,-1.4382,-1.4358,-1.431,-1.4293,-1.4235,-1.4226,-1.4156,-1.4159,-1.4168,-1.4166,-1.4126,-1.4129,-1.4004,-1.3986,-1.4093,-1.4092,-1.4091,0,-1.463,-1.4593,-1.4556,-1.453,-1.4511,-1.447,-1.4443,-1.4432,-1.4404,-1.4361,-1.4331,-1.4284,-1.4245,-1.4168,-1.4144,-1.4098,-1.4098,-1.4057,-1.4091,-1.4092,-1.4093,-1.4094,-1.4089,-1.405,-1.4049,-1.4048,-1.4047,0,-1.4542,-1.4536,-1.4499,-1.4458,-1.4426,-1.4393,-1.4361,-1.4339,-1.4323,-1.4291,-1.4242,-1.4213,-1.4153,-1.4104,-1.4058,-1.4036,-1.4037,-1.4038,-1.4025,-1.4024,-1.403,-1.4023,-1.4148,-1.404,-1.404,-1.4041,-1.4041,-1.4042,-1.4479,-1.4445,-1.4413,-1.437,-1.4345,-1.4315,-1.428,-1.4262,-1.4222,-1.4173,-1.4169,-1.4116,-1.4081,-1.4018,-1.3995,-1.3951,-1.3962,-1.3945,-1.394,-1.3935,-1.393,-1.404,-1.3943,-1.3943,-1.3943,-1.3943,-1.3944,0,-1.4388,-1.4367,-1.4328,-1.4284,-1.4249,-1.4256,-1.4221,-1.419,-1.4144,-1.4112,-1.4074,-1.4017,-1.397,-1.3943,-1.3895,-1.3865,-1.3864,-1.3853,-1.3853,-1.3847,-1.3925,-1.3939,-1.3854,-1.3854,-1.3854,-1.3854,-1.3854,-1.3854,-1.4336,-1.4279,-1.427,-1.4199,-1.4179,-1.4128,-1.4106,-1.4077,-1.4051,-1.3988,-1.3949,-1.3932,-1.3901,-1.3851,-1.3807,-1.38,-1.3781,-1.3767,-1.376,-1.3833,-1.3842,-1.3851,-1.3864,-1.3764,-1.3764,-1.3686,-1.3685,-1.3684]}]]